Regional Weather Roundup
Issued by NWS Upton, NY

Current Version | Previous Version | Graphics & Text | Print | Product List | Glossary Off
Versions: 1 2 3 4 5 6 7 8 9 10 11 12 13 14 15 16 17 18 19 20 21 22 23 24 25 26 27 28 29 30 31 32 33 34 35 36 37 38 39 40 41 42 43 44 45 46 47 48 49 50

000
ASUS41 KOKX 230608
RWROKX

REGIONAL WEATHER ROUNDUP
NATIONAL WEATHER SERVICE NEW YORK NY
100 AM EST MON JAN 23 2017

NOTE: "FAIR" INDICATES FEW OR NO CLOUDS BELOW 12,000 FEET WITH NO
SIGNIFICANT WEATHER AND/OR OBSTRUCTIONS TO VISIBILITY.

NYZ071-072-176-178-NJZ106-104-230700-
NEW YORK CITY METRO AREA

CITY           SKY/WX    TMP DP  RH WIND       PRES   REMARKS
Central Park   CLOUDY    43  40  89 E16G23    29.83F
Wall St Helipt CLOUDY    45  40  82 NE17G30   29.81S
LaGuardia APRT CLOUDY    45  40  82 E23G32    29.82S
Kennedy INTL   CLOUDY    46  43  89 NE23G32   29.81S
Breezy Point     N/A     43 N/A N/A NE14G20     N/A
Newark/Liberty CLOUDY    45  39  79 NE20G32   29.81S
Teterboro      CLOUDY    46  40  79 E10G25    29.81S
$$

NYZ177-179-078>081-230700-
LONG ISLAND NEW YORK

CITY           SKY/WX    TMP DP  RH WIND       PRES   REMARKS
Jones Beach      N/A     43 N/A N/A E22G29      N/A
Matinecock PT    N/A     41 N/A N/A E28         N/A
Farmingdale    CLOUDY    44  40  85 E18G25    29.82R
MacArthur/ISP  CLOUDY    43  41  93 NE18G32   29.82S
Shirley        CLOUDY    42  41  96 VRB7G17   29.84S FOG
Westhampton    LGT RAIN  42  39  89 E14G28    29.84S
Southampton    NOT AVBL
Bridgehampton  NOT AVBL
East Hampton   CLOUDY    40  39  96 E12G22    29.86S WCI  33
Montauk          N/A     42  40  92 NE15G26   29.87S
$$

NYZ052-065-067-230700-
HUDSON VALLEY

CITY           SKY/WX    TMP DP  RH WIND       PRES   REMARKS
White Plains   CLOUDY    44  38  79 E13       29.81F
Newburgh       CLOUDY    41  37  87 E16       29.85F
Montgomery     CLOUDY    42  37  82 NE16      29.83F
Poughkeepsie   CLOUDY    41  35  79 NE9G17    29.86F
Albany         CLOUDY    37  34  89 CALM      29.91S
$$

NJZ001-105-106-008-010-013-015-019>022-104-230700-
NEW JERSEY

CITY           SKY/WX    TMP DP  RH WIND       PRES   REMARKS
Newark/Liberty CLOUDY    45  39  79 NE20G32   29.81S
Teterboro      CLOUDY    46  40  79 E10G25    29.81S
Caldwell       CLOUDY    45  40  82 E13G20    29.82S
Somerville     CLOUDY    45  39  79 E10G16    29.78S
Linden         CLOUDY    45  40  82 E13G20    29.81S
Sussex         CLOUDY    42  41  96 NE10      29.82R FOG
Andover          N/A     44  39  82 VRB3      29.79S
Trenton        CLOUDY    45  41  86 E17G26    29.76S
Millville      CLOUDY    47  47 100 NE20G26   29.67F FOG
Atlantic City  CLOUDY    47  44  90 NE24G32   29.68S FOG
Wrightstown    CLOUDY    44  43  95 NE24G31   29.71F
Toms River     LGT RAIN  44  43  96 NE18G26   29.74F FOG
Belmar         CLOUDY    43  41  93 NE18G31   29.77F
$$

PAZ047>061-062-071-230700-
EASTERN PENNSYLVANIA

CITY           SKY/WX    TMP DP  RH WIND       PRES   REMARKS
Philadelphia   CLOUDY    46  42  86 NE17G33   29.73F
Allentown      CLOUDY    46  39  76 E14       29.76F
Scranton       CLOUDY    47  42  83 NE9       29.73S
$$

CTZ002-004>006-009-010-012-RIZ004-006-007-MAZ004-011-015-230700-
SOUTHERN NEW ENGLAND
 IN CT

CITY           SKY/WX    TMP DP  RH WIND       PRES   REMARKS
Bradley INTL   CLOUDY    38  36  92 N10       29.92R WCI  31
Hartford       CLOUDY    41  36  82 NE10      29.91S
Danbury        CLOUDY    40  37  89 NE8       29.86S WCI  34
Wtrbury/Oxford CLOUDY    39  36  87 E13       29.87R WCI  32
Bridgeport     CLOUDY    45  38  76 NE16G26   29.85F
Meriden        CLOUDY    43  37  79 NE8       29.88F
New Haven      CLOUDY    43  38  82 NE15G22   29.86S
Chester        CLOUDY    41  37  87 NE13      29.86S
Groton         CLOUDY    42  38  85 NE16      29.88R
Wilimantic     CLOUDY    42  37  82 NE10      29.91S

 IN RI

CITY           SKY/WX    TMP DP  RH WIND       PRES   REMARKS
Providence     CLOUDY    40  36  86 NE14      29.93R WCI  32
Block Island   NOT AVBL
Westerly       CLOUDY    42  37  82 NE12      29.89S
 IN MA

CITY           SKY/WX    TMP DP  RH WIND       PRES   REMARKS
Boston         CLOUDY    40  35  83 NE21      29.97S WCI  30
Worcester      CLOUDY    34  32  92 NE12G26   29.92R WCI  25
Westfield      CLOUDY    37  35  92 N8        29.93S WCI  31
Provincetown   CLOUDY    40  32  73 E22G28    29.95R WCI  30
Nantucket      CLOUDY    42  35  76 NE20G29   29.89R
$$

ANZ330-335-338-340-345-350-353-355-230700-
COASTAL MARINE OBSERVATIONS


STATION/POSITION TIME  SKY/WX   TEMP    WIND        PRES    VSBY  WAVE
                                AIR SEA DIR/SP/G                  HT/PER
                 (UTC)          (F)     (DEG/KT/KT) (MB)    (MI)  (FT/S)
NY HARB ENTRANCE 0450            44 43   60/ 27/ 33 1007.9          9/ 7
20 S FIRE ISLAND 0550            46 46   70/ 27/ 31 1007.2         10/ 8
GREAT SOUTH BAY  NOT AVBL
23 SSW MONTAUK P 0450            45 47   70/ 27/ 33 1009.3          8/ 6
15 E BARNEGAT LI 0530               47                N/A          10/ 8
HUDSON CANYON    0450            51 52              1005.2         11/ 8
KINGS POINT      0542                               1009.5
EXECUTION ROCKS  0545            42      60/ 17/ 21   N/A
CENTRAL LI SOUND 0515            42      60/ 16/ 19   N/A           3/ 4
EASTERN LI SOUND NOT AVBL
ROBBINS REEF     0542                    70/ 25/ 31 1008.8
$$


>>>>>>>>>>>>>>>>>>>>>>>>>>>> KEY <<<<<<<<<<<<<<<<<<<<<<<<<<<
>                                                          <
>     SKY/WX - Sky Condition/Present Weather               <
>     TMP    - Temperature in Fahrenheit                   <
>     DP     - Dew Point in Fahrenheit                     <
>     RH     - Relative Humidity in Percent                <
>     WIND   - Direction (from) and Speed in MPH           <
>     PRES   - Mean Sea Level Pressure (inches of Hg)      <
>     WCI    - Wind Chill Index                            <
>     VSB    - VISIBILITY IN MILES                         <
>     HX     - HEAT INDEX                                  <
>     TC     - TEMPERATURE IN CELSIUS                      <
>     VRB    - VARIABLE WIND DIRECTION                     <
>                                                          <
>>>>>>>>>>>>>>>>>>>>>>>>>>>> KEY <<<<<<<<<<<<<<<<<<<<<<<<<<<



USA.gov is the U.S. government's official web portal to all federal, state and local government web resources and services.